Regional Weather Roundup
Issued by NWS

Home | Current Version | Previous Version | Graphics & Text | Print | Product List | Glossary On
Versions: 1 2 3 4 5 6 7 8 9 10 11 12 13 14 15 16 17 18 19 20 21 22 23 24 25 26 27 28 29 30 31 32 33 34 35 36 37 38 39 40 41 42 43 44 45 46 47 48 49 50
000
ASUS43 KLOT 100700
RWRIL

ILLINOIS REGIONAL WEATHER ROUNDUP
NATIONAL WEATHER SERVICE CHICAGO/ROMEOVILLE IL
200 AM CDT THU JUL 10 2014

NOTE: "FAIR" INDICATES FEW OR NO CLOUDS BELOW 12,000 FEET WITH NO
SIGNIFICANT WEATHER AND/OR OBSTRUCTIONS TO VISIBILITY.

* THESE STATIONS ARE NOT UNDER NWS QUALITY CONTROL. THEY ALSO MAY NOT
  REPORT WEATHER SUCH AS PRECIPITATION OR FOG.

ILZ001-002-007-009-015-016-024-100800-
NORTHWEST ILLINOIS

CITY           SKY/WX    TMP DP  RH WIND       PRES   REMARKS
MOLINE         MOCLDY    63  57  81 CALM      30.08S
STERLING*      MOCLDY    57  55  94 CALM      30.10R
$$

ILZ003-004-008-010-011-017-018-100800-
NORTH CENTRAL ILLINOIS

CITY           SKY/WX    TMP DP  RH WIND       PRES   REMARKS
ROCKFORD       PTCLDY    59  54  83 CALM      30.12R
$$

ILZ005-006-012>014-019>023-100800-
NORTHEAST ILLINOIS

CITY           SKY/WX    TMP DP  RH WIND       PRES   REMARKS
CHICAGO-OHARE  CLEAR     63  54  72 CALM      30.09R
CHICAGO-MIDWAY CLEAR     66  59  78 CALM      30.09R
AURORA         CLEAR     56  53  90 CALM      30.10R
WAUKEGAN       PTCLDY    57  56  96 SW3       30.09R
DUPAGE AIRPORT CLEAR     58  55  90 CALM      30.10R
WHEELING       CLEAR     62  56  80 CALM      30.11R
NORTHERLY ISL    N/A     63  60  90 CALM        N/A
$$

LMZ740>746-100800-
SOUTHERN LAKE MICHIGAN

STATION/POSITION SKY/WX   TEMP    WIND        PRES    VSBY  WAVE
                          AIR SEA DIR/SP/G                  HT/PER
                          (F)     (DEG/KT/KT) (MB)    (MI)  (FT/S)
SOUTHERN BUOY              58 56   CALM  /  2 1018.8R         0
WAUKEGAN HARBOR            62     250/  3/  4 1020.3R
HARRISON CRIB              66     140/  4/  5   N/A
BURNHAM HARBOR             62      CALM  /  2   N/A
CALUMET HARBOR             65      CALM  /  1 1019.6R
BURNS HARBOR               66     100/  4/  5 1019.3R
MICHIGAN CITY              64     120/  4/  6   N/A
$$

ILZ025>027-034>036-040-047-049-050-058-095>099-100800-
WEST-CENTRAL ILLINOIS

CITY           SKY/WX    TMP DP  RH WIND       PRES   REMARKS
QUINCY         PTCLDY    65  56  72 SE3       30.09S
$$

ILZ028>032-037-038-041>044-048-051>054-059>061-100800-
CENTRAL ILLINOIS

CITY           SKY/WX    TMP DP  RH WIND       PRES   REMARKS
DECATUR        CLEAR     62  58  86 N6        30.09S
PEORIA         CLEAR     62  58  86 CALM      30.09S
SPRINGFIELD    CLEAR     59  57  93 CALM      30.09S
TAYLORVILLE    NOT AVBL
$$

ILZ033-039-045-046-055>057-062-063-100800-
EAST-CENTRAL ILLINOIS

CITY           SKY/WX    TMP DP  RH WIND       PRES   REMARKS
CHAMPAIGN      CLEAR     61  56  83 N6        30.09R
MATTOON          N/A     62  57  83 NW6       30.08R
$$

ILZ079-100>102-100800-
SOUTHWEST ILLINOIS

CITY           SKY/WX    TMP DP  RH WIND       PRES   REMARKS
BELLEVILLE     CLEAR     63  61  94 N2        30.07F
CAHOKIA*       CLEAR     61  59  93 CALM      30.08S
$$

ILZ064>066-069>071-074>076-080>082-084>086-088>090-092>094-100800-
SOUTH-CENTRAL ILLINOIS

CITY           SKY/WX    TMP DP  RH WIND       PRES   REMARKS
CARBONDALE     MOCLDY    68  63  84 N5        30.07S
MT. VERNON     MOCLDY    63  57  82 CALM      30.08S
$$

ILZ067-068-072-073-078-083-087-091-100800-
SOUTHEAST ILLINOIS

CITY           SKY/WX    TMP DP  RH WIND       PRES   REMARKS
$$

ABBREVIATIONS USED IN REMARKS
   TC - TEMPERATURE IN CELSIUS
  WCI - WIND CHILL INDEX
   HX - HEAT INDEX
  VSB - VISIBILITY
$$




USA.gov is the U.S. government's official web portal to all federal, state and local government web resources and services.